Regional Weather Roundup
Issued by NWS Nashville, TN

Current Version | Previous Version | Text Only | Print | Product List | Glossary On
Versions: 1 2 3 4 5 6 7 8 9 10 11 12 13 14 15 16 17 18 19 20 21 22 23 24 25 26 27 28 29 30 31 32 33 34 35 36 37 38 39 40 41 42 43 44 45 46 47 48 49 50
000
ASUS44 KOHX 211810
RWROHX
MIDDLE TENNESSEE HOURLY WEATHER ROUNDUP
NATIONAL WEATHER SERVICE NASHVILLE TN
1200 PM CST TUE NOV 21 2017

NOTE: "FAIR" INDICATES FEW OR NO CLOUDS BELOW 12,000 FEET WITH
NO SIGNIFICANT WEATHER AND/OR OBSTRUCTIONS TO VISIBILITY.

* THESE REPORTS ARE NOT UNDER NWS QUALITY CONTROL AND MAY NOT
  REPORT WEATHER SUCH AS PRECIPITATION AND FOG.


TNZ005>011-023>034-057-059-062>066-078-080-211900
...NORTHERN MIDDLE TENNESSEE...

CITY           SKY/WX    TMP DP  RH WIND       PRES   REMARKS
CLARKSVILLE    MOSUNNY   54  31  41 SW9       30.02F
CROSSVILLE     MOSUNNY   57  46  66 S12G17    30.05F
GALLATIN       SUNNY     59  30  33 S8G15     30.06F
DICKSON          N/A     54  29  38 S12       30.01F
LEBANON        SUNNY     57  31  37 CALM      30.02F
NASHVILLE      PTSUNNY   58  31  35 SW7       30.05F
PORTLAND       SUNNY     55  30  38 S13G18    30.01F
SMYRNA         SUNNY     58  32  37 S12       30.05F
SPARTA         SUNNY     61  41  48 SW12      30.03F
SPRINGFIELD    SUNNY     55  30  38 S13       30.00F
WEST NASHVILLE SUNNY     57  28  33 SW9       30.02F
$$
TNZ056-058-060-061-075>077-079-093>097-211900
...SOUTHERN MIDDLE TENNESSEE...

CITY           SKY/WX    TMP DP  RH WIND       PRES   REMARKS
COLUMBIA       SUNNY     55  32  41 SW8       30.02F
FAYETTEVILLE   SUNNY     59  37  44 SW12G17   30.05F
MCMINNVILLE    SUNNY     61  41  48 SW10G21   30.03F
MURFREESBORO   SUNNY     57  36  44 SW8       30.05F
PULASKI        SUNNY     57  34  41 SW6       30.05F
SHELBYVILLE    SUNNY     59  39  47 S10       30.05F
TULLAHOMA      MOSUNNY   61  37  41 SW10G16   30.04F
WINCHESTER     SUNNY     63  45  51 SW10      30.04F
$$


...KEY TO REMARKS...
VSB - VISIBILITY IN MILES
WCI - WIND CHILL INDEX
HX  - HEAT INDEX




USA.gov is the U.S. government's official web portal to all federal, state and local government web resources and services.